Location: *
(40.4000°N, 15.1200°E)
Time: 18:42:42
(UTC+00:00)

Iridium 4 Rocket - Pass Details

Date: 09 April 2020
Orbit: 586 x 903 km, 86.9° (Epoch: 05 June)

Event Time Altitude Azimuth Distance (km) Brightness Sun altitude
Rises 19:53:58 0° 358° (N) 2,836 7.0 -25.3°
Reaches altitude 10° 19:56:10 10° 359° (N) 1,920 6.0 -25.6°
Enters shadow 19:59:09 46° 4° (N) 790 3.7 -26.1°
